Location: Gammelsbach
(49.5261°N, 8.9630°E)
Time: 18:24:24
(UTC+00:00)

IRS-1C Rocket - Pass Details

Date: 17 June 2025
Orbit: 799 x 804 km, 98.7° (Epoch: 12 July)

Event Time Altitude Azimuth Distance (km) Brightness Sun altitude
Exits shadow 20:15:58 - 153° (SSE) 2,735 6.2 -5.8°
Reaches altitude 10° 20:16:53 10° 152° (SSE) 2,372 5.9 -5.9°
Maximum altitude 20:22:05 68° 71° (ENE) 865 4.2 -6.5°
Drops below altitude 10° 20:27:19 10° 350° (N) 2,386 7.6 -7.1°
Sets 20:29:40 0° 348° (NNW) 3,321 8.6 -7.3°
